STARLINK-36376, 67590

Orbit data source: Space-Track

STARLINK-36376, 67590 is a payload satellite owned by SpaceX/Seattle (US) in SSO that was launched on Thu, 29 Jan 2026 UTC via an FALCON 9 launch vehicle from the Air Force Western Test Range (AFWTR). Payload-class satellites include a variety of spacecraft equipped with specific instruments for various scientific and technological missions. These include communications satellites like Starlink; space stations such as the ISS; scientific satellites like the Hubble; Earth observation satellites from companies like Planet Labs, Umbra, and HawkEye 360; GPS; miniature CubeSats for education and research; and military/defense satellites.

Loading next visibility...
Identifier
67590, 2026-018B
Orbit
SSO
Country
Flag of USUS
Related business
Manufacturer
SpaceX/Seattle
Mission
Operational Commercial Communications
Bus & Motor
STARLINK V2MO, Unknown motor
Mass
575 kg wet, ~530 kg dry
Launch date (UTC)
2026-01-29 (5 months ago)
Launch vehicle
FALCON 9
Launch site
Air Force Western Test Range (AFWTR)
Object type
Payload
Rocket body
Debris
Shape & HBR
Box + 2 Pan, 17.7 m
Radar Cross Section
36.964 m², Large (>1 m²)

Expand to show TLE details & history
Last TLE update: 11 hours ago

TLE from 11 hours ago
0 STARLINK-36376
1 67590U 26018B   26171.45217385  .00030437  00000-0  94092-3 0  9990
2 67590  97.2843 236.2174 0000843 292.9505  67.1649 15.33458647 23086
Epoch: 2026-06-20T10:51Z
TLE epoch observation values (Epoch: 2026-06-20T10:51:07.820Z)
Latitude
-0.00001°
Longitude
164.76822°
Altitude
468.391 km
Speed
7.632 km/s
True Right ascension
15h 44m 52s
True Declination
0° 00' 00"
Sunlit
Object was in full shadow at epoch
Visualization orbit readout
Latitude
Unknown
Longitude
Unknown
Altitude
Unknown
Speed
Unknown
Apparent Right ascension
Unknown
Apparent Declination
Unknown
Sunlit
N/A
Visualization observer readout
Local Sidereal Time
08:33:32
Azimuth
Unknown
Elevation
Unknown
Doppler factor
Unknown
Orbital elements
Apogee altitude
463.022 km
Perigee altitude
461.869 km
Semi-major axis
6,840.582 km
Eccentricity
0.00008
Inclination
97.2843°
RAAN
236.2174°
Arg. of periapsis
292.9505°
True anomaly
67.1738°
Mean anomaly
67.1649°
Eccentric anomaly
67.16935°
Mean motion
3.83622 °/min
Orbital period
93.84 mins
BSTAR
0.00094092
Loading maneuver chart data...
Computing Atmospheric mass density...
Loading historical data...
Loading historical data...
Loading historical data...
Loading historical data...
Loading historical data...
Loading historical data...
Loading historical data...

Documentation

Showing up to 5 results
|